Monterey, CA

4:24 AM PST on December 17, 2017 (GMT -0800)
Monterey Peninsula

Weather History for KMRY - August, 2013

Change the Weather History Date:

Wednesday, August 21, 2013

  Actual Average Record
Temperature  
Mean Temperature 65 °F 62 °F  
Max Temperature 71 °F 70 °F 72 °F (2008)
Min Temperature 58 °F 54 °F 52 °F (2012)
Degree Days  
Heating Degree Days 0    
Month to date heating degree days 61  
Since 1 June heating degree days 302  
Since 1 July heating degree days 174  
Cooling Degree Days 0    
Month to date cooling degree days 2  
Year to date cooling degree days 23  
Since 1 June cooling degree days 16  
Growing Degree Days 14 (Base 50)    
Moisture  
Dew Point 54 °F    
Average Humidity 72    
Maximum Humidity 86    
Minimum Humidity 57    
Precipitation  
Precipitation 0.00 in - 0.00 in (2017)
Month to date precipitation 0.08  
Year to date precipitation 3.23  
Since 1 July precipitation 0.08  
Sea Level Pressure  
Sea Level Pressure 29.97 in    
Wind  
Wind Speed 5 mph (West)    
Max Wind Speed 14 mph    
Max Gust Speed 17 mph    
Visibility 10 miles    
Events      
T = Trace of Precipitation, MM = Missing Value Source: NWS Daily Summary

Daily Weather History Graph

Daily Weather History Graph

Search for Another Location

Airport or City:

Trip Planner

Search our weather history database for the weather conditions in past years. The results will help you decide how hot, cold, wet, or windy it might be!

Date:

Astronomy

Aug. 21, 2013 Rise Set
Actual Time 6:30 AM PDT 7:50 PM PDT
Civil Twilight 6:02 AM PDT 8:17 PM PDT
Nautical Twilight 5:30 AM PDT 8:49 PM PDT
Astronomical Twilight 4:56 AM PDT 9:22 PM PDT
Moon 8:05 PM PDT (8/21) 7:13 AM PDT (8/21)
Length of Visible Light 14h 14m
Length of Day
13h 20m
Full, 99% of the Moon is Illuminated
Aug 21
Full
Aug 28
Last Quarter
Sep 5
New
Sep 12
First Quarter
Sep 19
Full

Hourly Weather History & Observations

Time (PDT) Temp. Dew Point Humidity Pressure Visibility Wind Dir Wind Speed Gust Speed Precip Events Conditions
12:54 AM 59.0 °F 53.1 °F 81% 29.96 in 10.0 mi Calm Calm - N/A   Overcast
1:54 AM 59.0 °F 53.1 °F 81% 29.96 in 10.0 mi East 4.6 mph - N/A   Overcast
2:54 AM 59.0 °F 53.1 °F 81% 29.95 in 10.0 mi Calm Calm - N/A   Overcast
3:54 AM 57.9 °F 53.1 °F 84% 29.95 in 10.0 mi Calm Calm - N/A   Overcast
4:54 AM 59.0 °F 53.1 °F 81% 29.95 in 10.0 mi Calm Calm - N/A   Overcast
5:54 AM 57.9 °F 53.1 °F 84% 29.96 in 10.0 mi ENE 3.5 mph - N/A   Overcast
6:54 AM 57.9 °F 53.1 °F 84% 29.98 in 10.0 mi Calm Calm - N/A   Overcast
7:54 AM 57.9 °F 53.1 °F 84% 29.99 in 10.0 mi Calm Calm - N/A   Overcast
8:54 AM 59.0 °F 53.1 °F 81% 30.00 in 10.0 mi WNW 3.5 mph - N/A   Overcast
9:54 AM 60.1 °F 53.1 °F 78% 30.00 in 10.0 mi Calm Calm - N/A   Overcast
10:54 AM 63.0 °F 54.0 °F 72% 30.00 in 10.0 mi Variable 4.6 mph - N/A   Mostly Cloudy
11:02 AM 64.4 °F 53.6 °F 68% 29.97 in 10.0 mi Calm Calm - N/A   Scattered Clouds
11:54 AM 64.0 °F 53.1 °F 67% 30.00 in 10.0 mi WNW 6.9 mph - N/A   Clear
12:54 PM 66.0 °F 54.0 °F 65% 29.98 in 10.0 mi NW 6.9 mph - N/A   Clear
1:54 PM 66.0 °F 54.0 °F 65% 29.97 in 10.0 mi NW 11.5 mph - N/A   Clear
2:54 PM 69.1 °F 54.0 °F 58% 29.96 in 10.0 mi WSW 8.1 mph - N/A   Clear
3:54 PM 70.0 °F 54.0 °F 57% 29.94 in 10.0 mi WSW 10.4 mph - N/A   Clear
4:54 PM 69.1 °F 54.0 °F 58% 29.93 in 10.0 mi SW 11.5 mph - N/A   Clear
5:54 PM 66.0 °F 54.0 °F 65% 29.94 in 10.0 mi SW 11.5 mph - N/A   Clear
6:54 PM 64.9 °F 55.0 °F 70% 29.95 in 10.0 mi WSW 9.2 mph - N/A   Clear
7:54 PM 63.0 °F 54.0 °F 72% 29.96 in 10.0 mi SW 5.8 mph - N/A   Clear
8:54 PM 62.1 °F 55.0 °F 78% 29.99 in 10.0 mi West 3.5 mph - N/A   Clear
9:45 PM 60.8 °F 55.4 °F 82% 29.96 in 10.0 mi Calm Calm - N/A   Mostly Cloudy
9:54 PM 61.0 °F 54.0 °F 78% 29.99 in 10.0 mi ESE 4.6 mph - N/A   Overcast
10:54 PM 61.0 °F 54.0 °F 78% 29.99 in 10.0 mi East 3.5 mph - N/A   Overcast
11:36 PM 60.8 °F 53.6 °F 77% 29.95 in 10.0 mi Calm Calm - N/A   Partly Cloudy
11:54 PM 60.1 °F 54.0 °F 80% 29.99 in 10.0 mi Calm Calm - N/A   Scattered Clouds